Location: Mountain Lakes
(44.1215°N, 71.9554°W)
Time: 02:31:09
(UTC+00:00)

USA 59 Rocket - Pass Details

Date: 08 September 2024
Orbit: 380 x 1726 km, 63.3° (Epoch: 11 October)

Event Time Altitude Azimuth Distance (km) Brightness Sun altitude
Rises 23:29:26 0° 337° (NNW) 2,444 3.7 -4.2°
Reaches altitude 10° 23:32:06 10° 4° (N) 1,713 2.5 -4.7°
Maximum altitude 23:34:21 15° 40° (NE) 1,562 1.9 -5.1°
Drops below altitude 10° 23:36:56 10° 76° (ENE) 2,038 2.2 -5.6°
Enters shadow 23:38:23 - 87° (E) 2,481 2.5 -5.8°
